This demonstration page uses our WeatherBlox Daily Observations layout. Learn more.

Hourly Observations for October 30, 2020

Temp ( °F °C ) Dew Point ( °F °C ) Humidity (%) Winds ( mph kmh ) Pressure ( in mb ) Visibility ( mi km ) Precip ( " mm )
12:53 am 00:53 Cloudy 46 7.8 42 5.6 86 86 NNW 13 20 29.95 1014 10 16.0934 0 0
1:53 am 01:53 Cloudy 46 7.8 41 5 83 83 NW 13 20 29.97 1015 10 16.0934 0 0
2:37 am 02:37 Cloudy 46 7.8 42 5.6 86 86 NNW 8 13 29.99 1016 10 16.0934 0 0
2:53 am 02:53 Cloudy 45 7.2 41 5 86 86 NNW 10 17 29.99 1016 10 16.0934 0 0
3:34 am 03:34 Cloudy 45 7.2 41 5 86 86 NW 9 15 30.02 1016 10 16.0934 0 0
3:53 am 03:53 Cloudy 45 7.2 40 4.4 83 83 NW 10 17 30.01 1016 10 16.0934 0 0
4:53 am 04:53 Cloudy 44 6.7 39 3.9 83 83 NW 9 15 30.03 1017 10 16.0934 0 0
5:53 am 05:53 Cloudy 44 6.7 38 3.3 79 79 NW 9 15 30.06 1018 10 16.0934 0 0
6:10 am 06:10 Cloudy 44 6.7 38 3.3 79 79 NW 10 17 30.08 1019 10 16.0934 0 0
6:53 am 06:53 Cloudy 43 6.1 38 3.3 82 82 NW 9 15 30.09 1019 10 16.0934 0 0
7:53 am 07:53 Cloudy 43 6.1 36 2.2 76 76 NW 10 17 30.12 1020 10 16.0934 0 0
8:53 am 08:53 Mostly Cloudy 42 5.6 37 2.8 82 82 WNW 8 13 30.16 1022 10 16.0934 0 0
9:53 am 09:53 Mostly Sunny 43 6.1 36 2.2 76 76 NW 10 17 30.21 1023 10 16.0934 0 0
10:53 am 10:53 Mostly Sunny 46 7.8 37 2.8 71 71 WNW 12 19 30.23 1024 10 16.0934 0 0
11:53 am 11:53 Cloudy 46 7.8 34 1.1 63 63 NW 10 17 30.26 1025 10 16.0934 0 0
12:53 pm 12:53 Cloudy 46 7.8 34 1.1 63 63 NW 12 19 30.27 1025 10 16.0934 0 0
1:53 pm 13:53 Cloudy 48 8.9 34 1.1 58 58 VRB 7 11 30.27 1025 10 16.0934 0 0
2:53 pm 14:53 Mostly Cloudy 50 10 33 0.6 52 52 W 9 15 30.26 1025 10 16.0934 0 0
3:53 pm 15:53 Mostly Sunny 51 10.6 33 0.6 50 50 W 10 17 30.26 1025 10 16.0934 0 0
4:53 pm 16:53 Cloudy 49 9.4 33 0.6 55 55 WNW 8 13 30.28 1025 10 16.0934 0 0
5:53 pm 17:53 Cloudy 48 8.9 34 1.1 58 58 NW 5 7 30.29 1026 10 16.0934 0 0
6:53 pm 18:53 Cloudy 45 7.2 33 0.6 63 63 NW 6 9 30.31 1026 10 16.0934 0 0
7:53 pm 19:53 Cloudy 42 5.6 35 1.7 76 76 N 3 6 30.32 1027 10 16.0934 0 0
8:53 pm 20:53 Mostly Cloudy 38 3.3 34 1.1 86 86 Calm 30.34 1028 10 16.0934 0 0
9:53 pm 21:53 Clear 35 1.7 32 0 89 89 Calm 30.35 1028 10 16.0934 0 0
10:53 pm 22:53 Mostly Cloudy 33 0.6 31 -0.6 92 92 Calm 30.37 1029 10 16.0934 0 0
11:53 pm 23:53 Clear 32 0 30 -1.1 92 92 Calm 30.38 1029 10 16.0934 0 0

Powered by AerisWeather